Starlink 3702

operational
NORAD ID: 52100 Int'l Des: 2022-029 Owner: SPXS Country: US Constellation: starlink
LEOCIRCULAR

Starlink 3702について

説明を読み込み中...

リアルタイム位置

3D地球を読み込み中...

次回通過

高度履歴

Altitude vs Time

uPlot chart will show altitude changes over time

軌道要素

1 52100U 22029N 25305.28899090 .00001353 00000-0 10312-3 0 9995
2 52100 53.2169 305.5315 0001340 95.6074 264.5071 15.08835413201272
Epoch: Nov 1, 2025 • Age: 31 hours

現在のステータス

高度 539.6 km
速度 7.59 km/s
衛星直下点 8.92°N, 137.35°W
打ち上げ日 Mar 19, 2022
運用期間 3.6 years
タイプ internet

技術仕様

分類 Payload
質量 297.00 kg
乾燥質量 275.00 kg
総質量 297.00 kg
長さ 0.20 m
直径 2.80 m
スパン 9.00 m
形状 Box + pan
製造者 SPXS
バスタイプ Starlink
フェーズステータス In Orbit
所有者/国 SPXS/US

大規模コンステレーション

Loading constellations...